Volver al catálogo

FENGYUN 1C DEB

ActivoPO
NORAD 31878·DEBRIS·🇨🇳 China

Lanzado May 10, 1999 desde Taiyuan Satellite Launch Center

Loading…

Próximos Pases (próximas 24 horas)

TLE

ActualizadoSource: Space-Track

Época: Sep 13, 2026, 04:06 UTC

1 31878U 99025CKD 26256.17129365  .00006616  00000-0  62695-3 0  9997
2 31878  99.4617 237.6395 0077392  93.9975 267.0090 14.91773458 21477

Sigue FENGYUN 1C DEB en tiempo real con AllMySat

Download on the App Store